Date String (YYYY-MM-DD hh:mm:ss) UTC,Instrument flags,Ambient pressure (hPa),Sample flow (lpm),Bypass flow (lpm),Sample temperature (°C),Ambient temperature (°C),ASC tube jacket temperature (°C),LED temperature (°C),Box temperature (°C),Sample RH (%),Span deviation,Mass concentration (μg/m³),Mass concentration (μg/m³),Mass concentration (μg/m³)
DateTimeUTC,F1_M11,P_M11,Q1_M11,Q2_M11,T1_M11,T2_M11,T3_M11,T4_M11,T5_M11,U1_M11,ZSPAN_M11,X0_M11,X2_M11,X1_M11
2022-03-13 06:00:00,,0824.3,5.00,0.00,22.7,22.0,00.0,31.7,24.5,10.0,0000.0,0001.80,0001.12,0000.75
2022-03-13 06:01:00,,0824.3,5.00,0.00,22.7,22.0,00.0,31.7,24.4,09.7,0000.0,0001.94,0001.16,0000.76
2022-03-13 06:02:00,,0824.3,4.99,0.00,22.7,22.0,00.0,31.7,24.4,09.6,0000.0,0001.90,0001.15,0000.75
2022-03-13 06:03:00,,0824.2,5.01,0.00,22.7,22.0,00.0,31.7,24.5,09.8,0000.0,0001.86,0001.14,0000.75
2022-03-13 06:04:00,,0824.2,4.99,0.00,22.7,21.9,00.0,31.7,24.4,10.2,0000.0,0001.87,0001.14,0000.76
2022-03-13 06:05:00,,0824.2,4.99,0.00,22.7,21.9,00.0,31.7,24.4,10.2,0000.0,0001.80,0001.11,0000.76
2022-03-13 06:06:00,,0824.2,5.01,0.00,22.7,21.9,00.0,31.7,24.5,10.1,0000.0,0001.82,0001.11,0000.75
2022-03-13 06:07:00,,0824.2,4.99,0.00,22.7,21.9,00.0,31.7,24.5,10.2,0000.0,0001.94,0001.15,0000.74
2022-03-13 06:08:00,,0824.1,4.99,0.00,22.7,22.0,00.0,31.7,24.5,10.2,0000.0,0001.95,0001.16,0000.73
2022-03-13 06:09:00,,0824.1,5.01,0.00,22.7,22.0,00.0,31.7,24.5,10.2,0000.0,0001.96,0001.17,0000.73
2022-03-13 06:10:00,,0824.1,5.00,0.00,22.8,22.0,00.0,31.7,24.5,10.3,0000.0,0002.00,0001.17,0000.72
2022-03-13 06:11:00,,0824.1,5.00,0.00,22.8,22.0,00.0,31.7,24.5,10.4,0000.0,0002.03,0001.18,0000.72
2022-03-13 06:12:00,,0824.1,5.01,0.00,22.7,22.0,00.0,31.7,24.5,10.3,0000.0,0001.85,0001.11,0000.71
2022-03-13 06:13:00,,0824.1,5.00,0.00,22.7,22.0,00.0,31.7,24.5,10.4,0000.0,0001.92,0001.13,0000.70
2022-03-13 06:14:00,,0824.1,4.98,0.00,22.7,22.0,00.0,31.7,24.5,10.3,0000.0,0001.94,0001.13,0000.70
2022-03-13 06:15:00,,0824.1,5.01,0.00,22.7,21.9,00.0,31.7,24.4,10.4,0000.0,0001.97,0001.13,0000.68
2022-03-13 06:16:00,,0824.1,5.00,0.00,22.7,21.9,00.0,31.7,24.4,10.4,0000.0,0002.11,0001.15,0000.68
2022-03-13 06:17:00,,0824.0,5.00,0.00,22.7,21.9,00.0,31.7,24.4,10.4,0000.0,0002.19,0001.15,0000.68
2022-03-13 06:18:00,,0824.0,5.00,0.00,22.7,21.9,00.0,31.7,24.4,10.3,0000.0,0002.11,0001.09,0000.68
2022-03-13 06:19:00,,0824.0,5.01,0.00,22.7,21.9,00.0,31.7,24.4,10.3,0000.0,0002.03,0001.06,0000.67
2022-03-13 06:20:00,,0824.1,5.00,0.00,22.7,21.9,00.0,31.7,24.4,10.2,0000.0,0002.14,0001.08,0000.67
2022-03-13 06:21:00,,0823.9,5.00,0.00,22.7,21.9,00.0,31.7,24.4,10.2,0000.0,0002.03,0001.03,0000.66
2022-03-13 06:22:00,,0823.9,5.01,0.00,22.6,21.9,00.0,31.7,24.4,10.1,0000.0,0001.96,0001.00,0000.65
2022-03-13 06:23:00,,0824.0,5.00,0.00,22.6,21.9,00.0,31.7,24.4,10.2,0000.0,0001.98,0001.01,0000.65
2022-03-13 06:24:00,,0823.9,4.99,0.00,22.6,21.9,00.0,31.7,24.3,10.2,0000.0,0001.93,0000.99,0000.66
2022-03-13 06:25:00,,0824.0,5.01,0.00,22.6,21.9,00.0,31.7,24.3,10.2,0000.0,0001.91,0000.98,0000.66
2022-03-13 06:26:00,,0823.9,5.01,0.00,22.6,21.8,00.0,31.7,24.3,10.2,0000.0,0001.88,0000.97,0000.66
2022-03-13 06:27:00,,0823.9,4.99,0.00,22.6,21.8,00.0,31.6,24.3,10.3,0000.0,0001.78,0000.96,0000.65
2022-03-13 06:28:00,,0823.8,4.99,0.00,22.6,21.8,00.0,31.6,24.3,10.2,0000.0,0001.76,0000.97,0000.65
2022-03-13 06:29:00,,0823.8,5.01,0.00,22.5,21.8,00.0,31.6,24.3,10.3,0000.0,0001.66,0000.97,0000.65
2022-03-13 06:30:00,,0823.9,5.01,0.00,22.5,21.8,00.0,31.6,24.2,10.5,0000.0,0001.77,0001.01,0000.65
2022-03-13 06:31:00,,0823.9,5.00,0.00,22.5,21.8,00.0,31.6,24.2,10.4,0000.0,0001.61,0000.96,0000.65
2022-03-13 06:32:00,,0823.8,5.01,0.00,22.5,21.7,00.0,31.6,24.2,10.4,0000.0,0001.57,0000.95,0000.65
2022-03-13 06:33:00,,0823.8,5.00,0.00,22.4,21.7,00.0,31.6,24.2,10.5,0000.0,0001.59,0000.96,0000.65
2022-03-13 06:34:00,,0823.9,4.99,0.00,22.4,21.7,00.0,31.6,24.1,10.7,0000.0,0001.58,0000.97,0000.65
2022-03-13 06:35:00,,0823.7,5.01,0.00,22.4,21.6,00.0,31.5,24.1,10.5,0000.0,0001.56,0000.97,0000.65
2022-03-13 06:36:00,,0823.8,5.00,0.00,22.4,21.6,00.0,31.5,24.1,10.5,0000.0,0001.57,0000.97,0000.65
2022-03-13 06:37:00,,0823.8,4.99,0.00,22.4,21.6,00.0,31.5,24.1,10.7,0000.0,0001.52,0000.95,0000.64
2022-03-13 06:38:00,,0823.7,5.00,0.00,22.4,21.6,00.0,31.5,24.1,10.8,0000.0,0001.53,0000.95,0000.64
2022-03-13 06:39:00,,0823.6,5.01,0.00,22.4,21.6,00.0,31.5,24.1,10.8,0000.0,0001.49,0000.94,0000.64
2022-03-13 06:40:00,,0823.6,4.99,0.00,22.4,21.6,00.0,31.5,24.1,11.1,0000.0,0001.54,0000.95,0000.63
2022-03-13 06:41:00,,0823.6,5.01,0.00,22.4,21.6,00.0,31.5,24.1,10.9,0000.0,0001.55,0000.95,0000.62
2022-03-13 06:42:00,,0823.6,4.99,0.00,22.4,21.6,00.0,31.5,24.1,10.8,0000.0,0001.57,0000.95,0000.62
2022-03-13 06:43:00,,0823.7,4.99,0.00,22.3,21.6,00.0,31.4,24.0,11.0,0000.0,0001.72,0001.00,0000.62
2022-03-13 06:44:00,,0823.6,5.01,0.00,22.3,21.6,00.0,31.4,24.0,10.8,0000.0,0001.77,0001.01,0000.62
2022-03-13 06:45:00,,0823.6,5.02,0.00,22.3,21.5,00.0,31.4,24.0,10.7,0000.0,0001.75,0001.01,0000.63
2022-03-13 06:46:00,,0823.6,5.00,0.00,22.3,21.5,00.0,31.4,24.0,10.7,0000.0,0001.72,0000.99,0000.63
2022-03-13 06:47:00,,0823.5,4.99,0.00,22.3,21.5,00.0,31.4,24.0,10.7,0000.0,0001.76,0001.00,0000.63
2022-03-13 06:48:00,,0823.4,5.01,0.00,22.3,21.5,00.0,31.4,23.9,10.8,0000.0,0001.82,0001.02,0000.63
2022-03-13 06:49:00,,0823.4,5.02,0.00,22.3,21.5,00.0,31.4,23.9,10.8,0000.0,0001.79,0001.01,0000.63
2022-03-13 06:50:00,,0823.3,4.99,0.00,22.3,21.5,00.0,31.4,23.9,10.8,0000.0,0001.79,0001.01,0000.64
2022-03-13 06:51:00,,0823.3,5.00,0.00,22.3,21.5,00.0,31.4,24.0,10.7,0000.0,0001.73,0001.01,0000.65
2022-03-13 06:52:00,,0823.3,4.99,0.00,22.3,21.5,00.0,31.3,24.0,10.7,0000.0,0001.61,0000.97,0000.65
2022-03-13 06:53:00,,0823.3,5.00,0.00,22.3,21.5,00.0,31.3,24.0,10.9,0000.0,0001.65,0000.99,0000.65
2022-03-13 06:54:00,,0823.3,5.02,0.00,22.3,21.4,00.0,31.3,24.0,11.0,0000.0,0001.55,0000.96,0000.65
2022-03-13 06:55:00,,0823.3,5.01,0.00,22.2,21.4,00.0,31.3,24.0,10.9,0000.0,0001.50,0000.94,0000.64
2022-03-13 06:56:00,,0823.3,5.00,0.00,22.2,21.4,00.0,31.3,23.9,10.9,0000.0,0001.49,0000.94,0000.65
2022-03-13 06:57:00,,0823.4,5.00,0.00,22.2,21.4,00.0,31.3,23.9,11.1,0000.0,0001.51,0000.96,0000.65
2022-03-13 06:58:00,,0823.4,5.00,0.00,22.2,21.4,00.0,31.3,23.9,10.9,0000.0,0001.45,0000.94,0000.65
2022-03-13 06:59:00,,0823.4,4.99,0.00,22.2,21.4,00.0,31.3,23.8,11.1,0000.0,0001.44,0000.94,0000.64
